Location: Goettingen
(51.5300°N, 9.9433°E)
Time: 18:39:52
(UTC+02:00)

ISS - Pass Details

Date: 09 May 2026
Orbit: 414 x 424 km, 51.6° (Epoch: 13 May)

Event Time Altitude Azimuth Distance (km) Brightness Sun altitude
Rises 23:16:39 0° 247° (WSW) 2,346 0.1 -16.1°
Reaches altitude 10° 23:18:45 10° 244° (WSW) 1,486 -0.9 -16.3°
Maximum altitude 23:22:03 64° 163° (SSE) 463 -3.9 -16.5°
Enters shadow 23:24:23 18° 84° (E) 1,099 -1.9 -16.7°
